SEU322 LGTS-LUKK

Flight info

Callsign SEU322
Flight time N/A
Altitude FL370
Route ODIKO UM987 ATFIR DCT ORTIP DCT BCU DCT BUSES
Aircraft B738/M-VGDW/C

Departure

Time N/A
Airport Thessaloniki Macedonia International Airport (LGTS)

Arrival

Time 2026-05-03 20:18
Airport Chişinău International Airport (LUKK)
Time Latitude Longitude Altitude Speed Heading
2026-05-03 20:15 46.93216 29.09768 2239 ft 215 kts 267°
2026-05-03 20:15 46.93140 29.07649 1948 ft 201 kts 268°
2026-05-03 20:15 46.93081 29.05675 1677 ft 186 kts 268°
2026-05-03 20:15 46.93036 29.03888 1456 ft 168 kts 268°
2026-05-03 20:16 46.92999 29.02247 1232 ft 153 kts 268°
2026-05-03 20:16 46.92965 29.00748 1042 ft 145 kts 268°
2026-05-03 20:16 46.92931 28.99282 866 ft 143 kts 267°
2026-05-03 20:16 46.92896 28.97828 686 ft 143 kts 267°
2026-05-03 20:17 46.92860 28.96370 496 ft 143 kts 267°
2026-05-03 20:17 46.92826 28.94930 354 ft 137 kts 266°
2026-05-03 20:17 46.92791 28.93698 339 ft 97 kts 267°
2026-05-03 20:17 46.92774 28.92977 339 ft 50 kts 269°
2026-05-03 20:18 46.92764 28.92540 339 ft 41 kts 268°
2026-05-03 20:18 46.92755 28.92181 339 ft 26 kts 267°
2026-05-03 20:18 46.92763 28.92020 339 ft 11 kts 315°
2026-05-03 20:18 46.92831 28.91998 339 ft 12 kts 358°
2026-05-03 20:19 46.92938 28.91993 339 ft 19 kts 358°
2026-05-03 20:19 46.93082 28.91985 339 ft 20 kts 359°
2026-05-03 20:19 46.93201 28.92019 339 ft 16 kts 13°
2026-05-03 20:19 46.93255 28.92082 339 ft 12 kts 72°
2026-05-03 20:20 46.93244 28.92247 339 ft 22 kts 96°
2026-05-03 20:20 46.93226 28.92477 339 ft 23 kts 96°
2026-05-03 20:20 46.93212 28.92658 339 ft 8 kts 95°
2026-05-03 20:20 46.93239 28.92719 339 ft 7 kts 21°
2026-05-03 20:21 46.93288 28.92729 339 ft 9 kts
2026-05-03 20:21 46.93377 28.92745 339 ft 14 kts
2026-05-03 20:21 46.93466 28.92766 339 ft 11 kts 32°
2026-05-03 20:21 46.93475 28.92888 339 ft 14 kts 99°
2026-05-03 20:22 46.93462 28.93025 339 ft 13 kts 100°
2026-05-03 20:22 46.93448 28.93154 339 ft 12 kts 95°
2026-05-03 20:22 46.93440 28.93273 339 ft 11 kts 96°
2026-05-03 20:22 46.93431 28.93386 339 ft 11 kts 96°
2026-05-03 20:23 46.93410 28.93479 339 ft 8 kts 155°
2026-05-03 20:23 46.93348 28.93475 339 ft 11 kts 185°
2026-05-03 20:23 46.93318 28.93520 339 ft 9 kts 96°
2026-05-03 20:23 46.93326 28.93586 339 ft 5 kts 20°
2026-05-03 20:24 46.93356 28.93594 339 ft 4 kts
2026-05-03 20:24 46.93365 28.93595 339 ft 0 kts